DEBAB EDDE-ZZZZ

Flight info

Callsign DEBAB
Flight time N/A
Altitude
Route
Aircraft SR22

Departure

Time 2026-05-09 11:49
Airport Erfurt-Weimar Airport (EDDE)

Arrival

Time N/A
Airport ZZZZ
Time Latitude Longitude Altitude Speed Heading
2026-05-09 11:49 50.96878 10.92060 1891 ft 120 kts 186°
2026-05-09 11:49 50.96052 10.91995 1958 ft 122 kts 170°
2026-05-09 11:50 50.95511 10.92924 2045 ft 122 kts 95°
2026-05-09 11:50 50.95501 10.94219 2134 ft 114 kts 88°
2026-05-09 11:50 50.95478 10.95509 2019 ft 120 kts 99°
2026-05-09 11:50 50.95314 10.96793 2030 ft 120 kts 99°
2026-05-09 11:51 50.95204 10.98118 2128 ft 115 kts 95°
2026-05-09 11:51 50.95174 10.99356 2104 ft 116 kts 94°
2026-05-09 11:51 50.95170 11.00655 2083 ft 119 kts 77°
2026-05-09 11:51 50.95676 11.01664 1993 ft 121 kts 21°
2026-05-09 11:52 50.96494 11.01741 1946 ft 115 kts 355°
2026-05-09 11:52 50.97268 11.01575 1824 ft 112 kts 343°
2026-05-09 11:52 50.97856 11.00824 1679 ft 110 kts 288°
2026-05-09 11:52 50.97767 10.99626 1447 ft 109 kts 256°
2026-05-09 11:53 50.97753 10.98474 1197 ft 105 kts 283°
2026-05-09 11:53 50.97855 10.97383 1040 ft 95 kts 278°
2026-05-09 11:53 50.97932 10.96433 1035 ft 86 kts 277°
2026-05-09 11:53 50.98004 10.95379 1232 ft 97 kts 273°
2026-05-09 11:54 50.98066 10.94210 1441 ft 116 kts 268°
2026-05-09 11:54 50.97626 10.93304 1627 ft 115 kts 185°
2026-05-09 11:54 50.96845 10.93297 1765 ft 113 kts 173°
2026-05-09 11:54 50.96067 10.93562 1801 ft 119 kts 152°
2026-05-09 11:55 50.95698 10.94702 1873 ft 122 kts 92°
2026-05-09 11:56 50.96737 11.00395 2161 ft 118 kts 358°
2026-05-09 11:56 50.97590 11.00197 1624 ft 130 kts 335°
2026-05-09 11:56 50.97790 10.99033 1340 ft 118 kts 264°
2026-05-09 11:57 50.97825 10.97752 1059 ft 111 kts 278°
2026-05-09 11:57 50.97914 10.96664 1034 ft 94 kts 277°
2026-05-09 11:57 50.98001 10.95547 1216 ft 103 kts 276°
2026-05-09 11:57 50.98097 10.94433 1497 ft 103 kts 278°
2026-05-09 11:58 50.98126 10.93232 1668 ft 122 kts 239°
2026-05-09 11:58 50.97313 10.92863 1871 ft 133 kts 185°
2026-05-09 11:58 50.96336 10.92782 1995 ft 145 kts 181°
2026-05-09 11:58 50.95540 10.93584 2185 ft 149 kts 104°
2026-05-09 11:59 50.95430 10.95247 2327 ft 155 kts 94°
2026-05-09 11:59 50.95371 10.96992 2400 ft 155 kts 92°